Regional Weather Roundup
Issued by NWS Charleston, WV

Home | Current Version | Previous Version | Text Only | Print | Product List | Glossary Off
Versions: 1 2 3 4 5 6 7 8 9 10 11 12 13 14 15 16 17 18 19 20 21 22 23 24 25 26 27

000
ASUS41 KRLX 311210
RWRRLX
West Virginia Regional Weather Roundup
National Weather Service Charleston WV
800 AM EDT TUE MAY 31 2016

Note: "fair" indicates few or no clouds below 12,000 feet with no
significant weather and/or obstructions to visibility.

WVZ003-311300-
Northern Panhandle of West Virginia

CITY           SKY/WX    TMP DP  RH WIND       PRES   REMARKS
WHEELING         N/A     63  59  87 CALM      30.03R
$$

WVZ009-311300-
Northwest West Virginia

CITY           SKY/WX    TMP DP  RH WIND       PRES   REMARKS
PARKERSBURG      N/A     63  61  93 CALM      30.05R
$$

WVZ006-311300-
Western West Virginia

CITY           SKY/WX    TMP DP  RH WIND       PRES   REMARKS
HUNTINGTON       N/A     63  61  93 E3        30.01R
$$

WVZ015-311300-
West Central West Virginia

CITY           SKY/WX    TMP DP  RH WIND       PRES   REMARKS
CHARLESTON       N/A     62  60  93 CALM      30.03R FOG
$$

WVZ022-031-311300-
North Central West Virginia

CITY           SKY/WX    TMP DP  RH WIND       PRES   REMARKS
CLARKSBURG     FOG       61  61 100 CALM      30.04R VSB 1/4
MORGANTOWN       N/A     64  56  75 S3        30.05R
$$

WVZ025-035-042-045-311300-
Southern West Virginia

CITY           SKY/WX    TMP DP  RH WIND       PRES   REMARKS
BECKLEY          N/A     64  60  87 CALM      30.08R
LOGAN            N/A     66  64  94 CALM      30.04S
BLUEFIELD        N/A     65  60  84 CALM      30.10R
LEWISBURG      FOG       59  59  99 N3        30.09R VSB 1/4
$$

WVZ047-311300-
Northern Mountains of West Virginia

CITY           SKY/WX    TMP DP  RH WIND       PRES   REMARKS
ELKINS         CLOUDY    58  57  97 CALM      30.09R
$$

WVZ052-311300-
Eastern Panhandle of West Virginia

CITY           SKY/WX    TMP DP  RH WIND       PRES   REMARKS
MARTINSBURG    FOG       64  64 100 CALM      30.00R VSB<1/4
PETERSBURG     FOG       62  62 100 CALM      30.05S VSB<1/4
$$




USA.gov is the U.S. government's official web portal to all federal, state and local government web resources and services.